GW5653 Weather Reports


time (UTC)temp
C
wind
direction
speed
KPH
gust
KPH
rain 1hr
cm
rain 24hr
cm
rain mn
cm
humidity
%
barometer
mb
20260504001907 11 160 0.0 0.0 0.00 0.00 0.00 55
20260504001404 11 180 0.0 1.6 0.00 0.00 0.00 56
20260504000900 11 173 0.0 0.0 0.00 0.00 0.00 56
20260504000357 12 168 0.0 1.6 0.00 0.00 0.00 55
20260503235855 12 167 0.0 1.6 0.00 0.00 0.00 51
20260503235353 13 162 0.0 1.6 0.00 0.00 0.00 47
20260503234849 13 160 0.0 0.0 0.00 0.00 0.00 43
20260503234347 14 212 1.6 3.2 0.00 0.00 0.00 40
20260503233845 15 208 1.6 3.2 0.00 0.00 0.00 41
20260503233341 16 202 3.2 3.2 0.00 0.00 0.00 36
20260503232837 16 193 4.8 4.8 0.00 0.00 0.00 31
20260503232335 16 236 3.2 9.7 0.00 0.00 0.00 35
20260503231833 17 230 4.8 9.7 0.00 0.00 0.00 30
20260503231330 17 219 3.2 4.8 0.00 0.00 0.00 31
20260503230825 17 233 4.8 6.4 0.00 0.00 0.00 28
20260503230322 17 216 1.6 4.8 0.00 0.00 0.00 31
20260503225820 17 164 9.7 14.5 0.00 0.00 0.00 28
20260503225316 16 172 3.2 11.3 0.00 0.00 0.00 29
20260503224812 16 250 12.9 14.5 0.00 0.00 0.00 29
20260503224310 17 301 6.4 12.9 0.00 0.00 0.00 29
20260503223807 17 237 8.0 9.7 0.00 0.00 0.00 30
20260503223305 17 222 6.4 9.7 0.00 0.00 0.00 29
20260503222800 18 172 4.8 9.7 0.00 0.00 0.00 30
20260503222259 17 253 6.4 6.4 0.00 0.00 0.00 31
20260503221757 17 105 3.2 4.8 0.00 0.00 0.00 31
20260503221254 17 245 4.8 11.3 0.00 0.00 0.00 29
20260503220751 17 150 4.8 6.4 0.00 0.00 0.00 29
20260503220248 17 239 6.4 11.3 0.00 0.00 0.00 30
20260503215744 17 250 14.5 16.1 0.00 0.00 0.00 28
20260503215242 18 226 12.9 14.5 0.00 0.00 0.00 28
20260503214740 17 238 6.4 11.3 0.00 0.00 0.00 29
20260503214236 18 250 9.7 12.9 0.00 0.00 0.00 29
20260503213734 17 180 4.8 4.8 0.00 0.00 0.00 28
20260503213231 17 233 3.2 9.7 0.00 0.00 0.00 31
20260503212728 17 223 4.8 11.3 0.00 0.00 0.00 30
20260503212226 17 257 12.9 16.1 0.00 0.00 0.00 29
20260503211723 17 252 6.4 16.1 0.00 0.00 0.00 28
20260503211219 17 255 12.9 24.1 0.00 0.00 0.00 29
20260503210715 17 246 9.7 12.9 0.00 0.00 0.00 30
20260503210212 16 192 11.3 17.7 0.00 0.00 0.00 29
20260503205707 16 65 3.2 12.9 0.00 0.00 0.00 29
20260503205204 16 64 6.4 17.7 0.00 0.00 0.00 30
20260503204700 16 285 11.3 14.5 0.00 0.00 0.00 31
20260503204158 16 16 9.7 16.1 0.00 0.00 0.00 29
20260503203655 17 2 14.5 16.1 0.00 0.00 0.00 28
20260503203153 16 217 0.0 4.8 0.00 0.00 0.00 28
20260503202649 17 229 11.3 12.9 0.00 0.00 0.00 29
20260503202148 16 227 6.4 9.7 0.00 0.00 0.00 30
20260503201646 16 188 4.8 14.5 0.00 0.00 0.00 30
20260503201143 16 337 8.0 20.9 0.00 0.00 0.00 28
20260503200638 16 177 14.5 29.0 0.00 0.00 0.00 30
20260503200135 16 348 6.4 6.4 0.00 0.00 0.00 30
20260503195632 16 207 14.5 20.9 0.00 0.00 0.00 29
20260503195129 16 130 8.0 12.9 0.00 0.00 0.00 30
20260503194626 16 219 9.7 12.9 0.00 0.00 0.00 31
20260503194121 17 275 14.5 24.1 0.00 0.00 0.00 31
20260503193619 17 204 11.3 16.1 0.00 0.00 0.00 31
20260503193114 17 188 6.4 12.9 0.00 0.00 0.00 30
20260503192610 16 177 4.8 4.8 0.00 0.00 0.00 29
20260503192106 16 281 4.8 14.5 0.00 0.00 0.00 30
20260503191603 16 235 4.8 14.5 0.00 0.00 0.00 32
20260503191059 16 242 12.9 22.5 0.00 0.00 0.00 32
20260503190556 16 256 19.3 24.1 0.00 0.00 0.00 31
20260503190054 15 243 8.0 11.3 0.00 0.00 0.00 33
20260503185550 15 260 14.5 20.9 0.00 0.00 0.00 33
20260503185050 17 250 8.0 11.3 0.00 0.00 0.00 33
20260503184546 17 96 1.6 3.2 0.00 0.00 0.00 31
20260503184043 15 143 1.6 9.7 0.00 0.00 0.00 33
20260503183539 16 138 6.4 11.3 0.00 0.00 0.00 33
20260503183037 15 170 0.0 9.7 0.00 0.00 0.00 32
20260503182535 15 253 11.3 24.1 0.00 0.00 0.00 34
20260503182033 15 261 9.7 12.9 0.00 0.00 0.00 33
20260503181529 15 214 6.4 9.7 0.00 0.00 0.00 33
20260503181025 15 251 11.3 12.9 0.00 0.00 0.00 33
20260503180523 14 42 9.7 12.9 0.00 0.00 0.00 34
20260503180020 15 233 16.1 24.1 0.00 0.00 0.00 36
20260503175518 15 175 8.0 20.9 0.00 0.00 0.00 35
20260503175014 13 279 14.5 27.4 0.00 0.00 0.00 36
20260503174512 15 208 3.2 17.7 0.00 0.00 0.00 36
20260503174008 13 160 0.0 4.8 0.00 0.00 0.00 36
20260503173503 13 284 12.9 16.1 0.00 0.00 0.00 36
20260503173000 13 263 11.3 14.5 0.00 0.00 0.00 39
20260503172457 13 235 9.7 17.7 0.00 0.00 0.00 37
20260503171954 13 268 11.3 24.1 0.00 0.00 0.00 38
20260503171450 12 252 12.9 16.1 0.00 0.00 0.00 37
20260503170948 12 247 9.7 33.8 0.00 0.00 0.00 39
20260503170444 13 259 14.5 25.7 0.00 0.00 0.00 38
20260503150837 11 147 3.2 9.7 0.00 0.00 0.00 40
20260503150333 11 260 9.7 27.4 0.00 0.00 0.00 41
20260503140257 10 9 4.8 11.3 0.00 0.00 0.00 45
20260503131227 8 239 8.0 17.7 0.00 0.00 0.00 49
20260503130724 8 239 9.7 20.9 0.00 0.00 0.00 49
20260503130221 10 223 4.8 6.4 0.00 0.00 0.00 47
20260503120147 7 261 14.5 17.7 0.00 0.00 0.00 54
20260503110615 6 98 4.8 6.4 0.00 0.00 0.00 64
20260503110112 7 141 0.0 1.6 0.00 0.00 0.00 62
20260503090501 6 67 1.6 12.9 0.00 0.00 0.00 62
20260503081428 6 225 6.4 12.9 0.00 0.00 0.00 62
20260503080925 6 161 0.0 1.6 0.00 0.00 0.00 62
20260503080421 6 170 1.6 4.8 0.00 0.00 0.00 60
20260503072858 5 199 1.6 3.2 0.00 0.00 0.00 71
20260503072355 5 168 0.0 3.2 0.00 0.00 0.00 70
20260503071851 5 172 0.0 1.6 0.00 0.00 0.00 71
20260503071349 5 157 0.0 0.0 0.00 0.00 0.00 72
20260503070844 5 152 0.0 0.0 0.00 0.00 0.00 72
20260503070343 5 191 3.2 3.2 0.00 0.00 0.00 71
20260503060314 6 191 1.6 1.6 0.00 0.00 0.00 65
20260503054801 6 53 4.8 4.8 0.00 0.00 0.00 66
20260503054258 6 170 0.0 1.6 0.00 0.00 0.00 66
20260503053756 6 86 1.6 3.2 0.00 0.00 0.00 64
20260503053254 6 346 0.0 4.8 0.00 0.00 0.00 67
20260503052750 6 61 1.6 1.6 0.00 0.00 0.00 72
20260503052248 6 150 0.0 0.0 0.00 0.00 0.00 70
20260503051742 7 149 0.0 3.2 0.00 0.00 0.00 67
20260503051240 7 220 1.6 4.8 0.00 0.00 0.00 61
20260503050736 7 115 0.0 1.6 0.00 0.00 0.00 59
20260503050232 7 79 3.2 11.3 0.00 0.00 0.00 60
20260503045730 7 154 3.2 6.4 0.00 0.00 0.00 60
20260503045228 6 245 3.2 3.2 0.00 0.00 0.00 74
20260503044724 6 109 0.0 3.2 0.00 0.00 0.00 69
20260503044221 6 112 3.2 4.8 0.00 0.00 0.00 68
20260503043718 7 185 1.6 1.6 0.00 0.00 0.00 63
20260503043216 7 175 0.0 1.6 0.00 0.00 0.00 64
20260503042711 7 102 0.0 1.6 0.00 0.00 0.00 62
20260503042208 7 240 4.8 4.8 0.00 0.00 0.00 64
20260503041704 8 83 1.6 3.2 0.00 0.00 0.00 59
20260503041202 7 61 1.6 3.2 0.00 0.00 0.00 59
20260503040659 8 155 0.0 1.6 0.00 0.00 0.00 60
20260503040157 8 79 3.2 6.4 0.00 0.00 0.00 59
20260503035653 8 102 1.6 4.8 0.00 0.00 0.00 59
20260503035151 8 102 0.0 3.2 0.00 0.00 0.00 59
20260503034648 8 60 3.2 14.5 0.00 0.00 0.00 58
20260503034145 8 127 3.2 3.2 0.00 0.00 0.00 58
20260503033642 8 224 3.2 4.8 0.00 0.00 0.00 58
20260503033140 8 68 3.2 9.7 0.00 0.00 0.00 57
20260503032638 8 47 3.2 4.8 0.00 0.00 0.00 56
20260503032136 8 152 0.0 6.4 0.00 0.00 0.00 56
20260503031633 9 134 1.6 3.2 0.00 0.00 0.00 55
20260503031131 9 156 0.0 4.8 0.00 0.00 0.00 55
20260503030626 10 234 8.0 11.3 0.00 0.00 0.00 54
20260503030123 10 260 6.4 9.7 0.00 0.00 0.00 54
20260503025620 10 263 4.8 16.1 0.00 0.00 0.00 53
20260503025118 10 326 1.6 9.7 0.00 0.00 0.00 52
20260503024614 10 288 3.2 14.5 0.00 0.00 0.00 51
20260503024111 10 356 4.8 12.9 0.00 0.00 0.00 49
20260503023609 10 240 4.8 9.7 0.00 0.00 0.00 50
20260503023106 10 133 3.2 9.7 0.00 0.00 0.00 51
20260503022601 10 156 4.8 6.4 0.00 0.00 0.00 49
20260503022056 10 112 1.6 1.6 0.00 0.00 0.00 49
20260503021553 11 48 3.2 11.3 0.00 0.00 0.00 50
20260503021050 11 350 6.4 12.9 0.00 0.00 0.00 48
20260503020547 11 114 1.6 4.8 0.00 0.00 0.00 48
20260503020044 11 88 4.8 11.3 0.00 0.00 0.00 49
20260503015541 11 164 0.0 4.8 0.00 0.00 0.00 48
20260503015038 11 57 3.2 6.4 0.00 0.00 0.00 48
20260503014534 11 161 0.0 6.4 0.00 0.00 0.00 49
20260503014032 11 134 1.6 3.2 0.00 0.00 0.00 46
20260503013529 11 52 3.2 4.8 0.00 0.00 0.00 46
20260503013027 11 177 1.6 3.2 0.00 0.00 0.00 46
20260503012524 11 227 3.2 3.2 0.00 0.00 0.00 44
20260503012020 11 171 4.8 6.4 0.00 0.00 0.00 44
20260503011517 11 280 6.4 9.7 0.00 0.00 0.00 43
20260503011014 11 114 3.2 6.4 0.00 0.00 0.00 43
20260503010510 11 248 9.7 16.1 0.00 0.00 0.00 43
20260503010008 12 278 4.8 11.3 0.00 0.00 0.00 41
20260503005505 12 268 6.4 11.3 0.00 0.00 0.00 41
20260503005002 11 263 3.2 4.8 0.00 0.00 0.00 42
20260503004458 12 227 3.2 6.4 0.00 0.00 0.00 43
20260503003956 12 251 4.8 6.4 0.00 0.00 0.00 42
20260503003452 12 198 3.2 3.2 0.00 0.00 0.00 42
20260503002949 12 179 3.2 9.7 0.00 0.00 0.00 40
20260503002447 12 0 9.7 12.9 0.00 0.00 0.00 43